Regional Weather Roundup
Issued by NWS Spokane, WA

Home | Current Version | Previous Version | Text Only | Print | Product List | Glossary On
Versions: 1 2 3 4 5 6 7 8 9 10 11 12 13 14 15 16 17 18 19 20 21 22 23 24 25 26 27 28 29 30 31 32 33 34 35 36 37 38 39 40 41 42 43 44 45 46 47 48 49 50
000
NZUS01 KOTX 272310
RWROTX
EASTERN WASHINGTON/NORTHERN IDAHO ROUNDUP
NATIONAL WEATHER SERVICE, SPOKANE WA
300 PM PST SAT DEC 27 2014

Note: "fair" indicated few or no clouds below 12,000 feet with no
significant weather and/or obstructions to visibility.

...NORTHEAST WASHINGTON AND NORTHERN IDAHO PANHANDLE...

CITY           SKY/WX    TMP DP  RH WIND       PRES   REMARKS
SPOKANE INTL   LGT SNOW  34  32  92 S18G28    29.92F VSB 1   WCI  23
SPOKANE DOWNTO LGT SNOW  34  31  88 CALM      29.96F VSB 1
COEUR D ALENE  CLOUDY    34  30  86 S10       29.95F WCI  26
DEER PARK      LGT SNOW  32  31  96 S8        29.95F VSB 3/4 WCI  25
SANDPOINT      SNOW      32  32 100 CALM      29.97F VSB 1/2

...SOUTHEAST WASHINGTON AND SOUTHERN IDAHO PANHANDLE...

CITY           SKY/WX    TMP DP  RH WIND       PRES   REMARKS
WALLA WALLA    LGT RAIN  44  36  73 S16       30.05F
PULLMAN/MOSCOW SNOW      31  29  92 SE16      30.01F VSB 1/2 WCI  20
LEWISTON       CLOUDY    39  29  67 S23G31    30.03F
LOWELL           N/A     33  31  92 NW3       30.15F

...COLUMBIA BASIN...

CITY           SKY/WX    TMP DP  RH WIND       PRES   REMARKS
EPHRATA        CLEAR     39  32  76 CALM      29.93F
MOSES LAKE     CLEAR     42  34  73 S10       29.95F
TRI CITIES     MOCLDY    47  35  63 SW21G30   30.03F
HERMISTON      CLOUDY    43  38  82 CALM      30.06F
PENDLETON      CLOUDY    41  34  76 S17       30.06F

...EAST SLOPES CASCADES...

CITY           SKY/WX    TMP DP  RH WIND       PRES   REMARKS
THE DALLES     CLOUDY    46  38  73 SW5       30.11F
YAKIMA         PTCLDY    43  30  60 CALM      29.99F
ELLENSBURG     PTCLDY    41  32  70 SW5       29.94F
WENATCHEE      PTCLDY    36  28  73 W3        29.93F
OMAK           CLOUDY    33  28  81 S7        29.95F WCI  27

...SOUTHERN BRITISH COLUMBIA...

CITY           SKY/WX    TMP DP  RH WIND       PRES   REMARKS
PENTICTON      FLURRIES  34  30  86 S14G23    29.94F WCI  24
CASTLEGAR      LGT SNOW  28  28 100 CALM      29.97  VSB 1

...WESTERN MONTANA...

CITY           SKY/WX    TMP DP  RH WIND       PRES   REMARKS
MISSOULA       CLOUDY    28  23  81 CALM      30.04F

...NEIGHBORING CITIES...

CITY           SKY/WX    TMP DP  RH WIND       PRES   REMARKS
SEATTLE        MOCLDY    49  43  80 SW10G21   30.03S



USA.gov is the U.S. government's official web portal to all federal, state and local government web resources and services.